• In Denmark
  • List of Countries
  • For 7 days
  • Water Temperature
  • Satellite Maps
  • Weather Map
  • Weather Widgets
  • user-avatar
    Login

    Hourly Weather Hawalii

    Today, 21 January, Sunday

    Time Temperature Precipitation Wind Pressure Humidity
    00:00 +13°C° 0 mm 5 mps 765 mmHg 40%
    01:00 +12°C° 0 mm 5 mps 765 mmHg 42%
    02:00 +12°C° 0 mm 5 mps 765 mmHg 43%
    03:00 +12°C° 0 mm 5 mps 765 mmHg 45%
    04:00 +10°C° 0 mm 5 mps 765 mmHg 47%
    05:00 +10°C° 0 mm 6 mps 765 mmHg 49%
    06:00 +10°C° 0 mm 6 mps 766 mmHg 51%
    07:00 +10°C° 0 mm 6 mps 766 mmHg 49%
    08:00 +11°C° 0 mm 6 mps 766 mmHg 47%
    09:00 +13°C° 0 mm 6 mps 767 mmHg 46%
    10:00 +14°C° 0 mm 6 mps 766 mmHg 41%
    11:00 +16°C° 0 mm 6 mps 766 mmHg 37%
    12:00 +17°C° 0 mm 6 mps 766 mmHg 32%
    13:00 +19°C° 0 mm 6 mps 766 mmHg 30%
    14:00 +19°C° 0 mm 6 mps 765 mmHg 27%
    15:00 +20°C° 0 mm 5 mps 765 mmHg 25%
    16:00 +19°C° 0 mm 5 mps 765 mmHg 27%
    17:00 +17°C° 0 mm 5 mps 765 mmHg 29%
    18:00 +17°C° 0 mm 4 mps 765 mmHg 30%
    19:00 +15°C° 0 mm 4 mps 765 mmHg 32%
    20:00 +15°C° 0 mm 5 mps 765 mmHg 33%
    21:00 +14°C° 0 mm 5 mps 765 mmHg 35%
    22:00 +14°C° 0 mm 5 mps 765 mmHg 36%
    23:00 +14°C° 0 mm 5 mps 765 mmHg 37%

    Tomorrow, 22 January, Monday

    Time Temperature Precipitation Wind Pressure Humidity
    00:00 +13°C° 0 mm 5 mps 765 mmHg 38%
    01:00 +13°C° 0 mm 5 mps 764 mmHg 39%
    02:00 +12°C° 0 mm 5 mps 764 mmHg 39%
    03:00 +12°C° 0 mm 5 mps 764 mmHg 40%
    04:00 +12°C° 0 mm 4 mps 764 mmHg 41%
    05:00 +12°C° 0 mm 4 mps 764 mmHg 42%
    06:00 +11°C° 0 mm 4 mps 764 mmHg 42%
    07:00 +12°C° 0 mm 4 mps 764 mmHg 39%
    08:00 +14°C° 0 mm 4 mps 764 mmHg 36%
    09:00 +15°C° 0 mm 4 mps 765 mmHg 34%
    10:00 +17°C° 0 mm 4 mps 764 mmHg 30%
    11:00 +18°C° 0 mm 3 mps 764 mmHg 27%
    12:00 +20°C° 0 mm 2 mps 763 mmHg 23%
    13:00 +20°C° 0 mm 2 mps 763 mmHg 22%
    14:00 +22°C° 0 mm 1 mps 762 mmHg 21%
    15:00 +22°C° 0 mm 1 mps 761 mmHg 20%
    16:00 +20°C° 0 mm 2 mps 761 mmHg 22%
    17:00 +19°C° 0 mm 2 mps 761 mmHg 25%
    18:00 +18°C° 0 mm 3 mps 761 mmHg 28%
    19:00 +17°C° 0 mm 3 mps 761 mmHg 31%
    20:00 +17°C° 0 mm 3 mps 761 mmHg 34%
    21:00 +15°C° 0 mm 4 mps 761 mmHg 37%
    22:00 +15°C° 0 mm 4 mps 761 mmHg 39%
    23:00 +14°C° 0 mm 4 mps 761 mmHg 40%

    Day after tomorrow, 23 January, Tuesday

    Time Temperature Precipitation Wind Pressure Humidity
    00:00 +14°C° 0 mm 4 mps 761 mmHg 41%
    01:00 +14°C° 0 mm 4 mps 760 mmHg 40%
    02:00 +13°C° 0 mm 4 mps 760 mmHg 39%
    03:00 +13°C° 0 mm 4 mps 760 mmHg 38%
    04:00 +13°C° 0 mm 4 mps 760 mmHg 38%
    05:00 +13°C° 0 mm 4 mps 760 mmHg 38%
    06:00 +13°C° 0 mm 4 mps 760 mmHg 37%
    07:00 +14°C° 0 mm 5 mps 760 mmHg 34%
    08:00 +15°C° 0 mm 5 mps 760 mmHg 31%
    09:00 +16°C° 0 mm 6 mps 760 mmHg 28%
    10:00 +19°C° 0 mm 6 mps 760 mmHg 24%
    11:00 +21°C° 0 mm 7 mps 759 mmHg 21%
    12:00 +22°C° 0 mm 7 mps 759 mmHg 17%
    13:00 +23°C° 0 mm 7 mps 758 mmHg 17%
    14:00 +24°C° 0 mm 8 mps 758 mmHg 17%
    15:00 +24°C° 0 mm 8 mps 757 mmHg 17%
    16:00 +23°C° 0 mm 8 mps 757 mmHg 20%
    17:00 +22°C° 0 mm 8 mps 757 mmHg 24%
    18:00 +21°C° 0 mm 7 mps 757 mmHg 28%
    19:00 +20°C° 0 mm 7 mps 758 mmHg 32%
    20:00 +18°C° 0 mm 7 mps 758 mmHg 36%
    21:00 +19°C° 0 mm 6 mps 758 mmHg 40%
    22:00 +19°C° 0 mm 5 mps 758 mmHg 39%
    23:00 +17°C° 0 mm 5 mps 758 mmHg 37%

    24 January, Wednesday

    Time Temperature Precipitation Wind Pressure Humidity
    00:00 +18°C° 0 mm 4 mps 758 mmHg 36%
    01:00 +17°C° 0 mm 4 mps 758 mmHg 34%
    02:00 +17°C° 0 mm 3 mps 758 mmHg 32%
    03:00 +17°C° 0 mm 3 mps 758 mmHg 31%
    04:00 +16°C° 0 mm 3 mps 759 mmHg 32%
    05:00 +16°C° 0 mm 2 mps 759 mmHg 32%
    06:00 +15°C° 0 mm 2 mps 759 mmHg 33%
    07:00 +17°C° 0 mm 2 mps 760 mmHg 30%
    08:00 +18°C° 0 mm 2 mps 760 mmHg 27%
    09:00 +19°C° 0 mm 3 mps 761 mmHg 24%
    10:00 +21°C° 0 mm 3 mps 760 mmHg 21%
    11:00 +22°C° 0 mm 3 mps 760 mmHg 18%
    12:00 +25°C° 0 mm 3 mps 760 mmHg 16%
    13:00 +25°C° 0 mm 3 mps 760 mmHg 15%
    14:00 +26°C° 0 mm 3 mps 760 mmHg 14%
    15:00 +26°C° 0 mm 3 mps 759 mmHg 14%
    16:00 +25°C° 0 mm 3 mps 759 mmHg 19%
    17:00 +22°C° 0 mm 3 mps 760 mmHg 24%
    18:00 +21°C° 0 mm 2 mps 760 mmHg 28%
    19:00 +20°C° 0 mm 2 mps 760 mmHg 34%
    20:00 +19°C° 0 mm 2 mps 760 mmHg 39%
    21:00 +19°C° 0 mm 1 mps 761 mmHg 44%
    22:00 +19°C° 0 mm 1 mps 761 mmHg 46%
    23:00 +18°C° 0 mm 1 mps 761 mmHg 48%

    25 January, Thursday

    Time Temperature Precipitation Wind Pressure Humidity
    00:00 +18°C° 0 mm 1 mps 760 mmHg 50%
    01:00 +18°C° 0 mm 1 mps 760 mmHg 47%
    02:00 +17°C° 0 mm 2 mps 760 mmHg 45%
    03:00 +17°C° 0 mm 2 mps 760 mmHg 43%
    04:00 +16°C° 0 mm 2 mps 760 mmHg 43%
    05:00 +16°C° 0 mm 2 mps 760 mmHg 42%
    06:00 +16°C° 0 mm 3 mps 760 mmHg 42%
    07:00 +17°C° 0 mm 2 mps 761 mmHg 40%
    08:00 +18°C° 0 mm 2 mps 761 mmHg 37%
    09:00 +20°C° 0 mm 2 mps 761 mmHg 35%
    10:00 +21°C° 0 mm 2 mps 761 mmHg 33%
    11:00 +23°C° 0 mm 2 mps 760 mmHg 31%
    12:00 +25°C° 0 mm 3 mps 760 mmHg 29%
    13:00 +25°C° 0 mm 3 mps 760 mmHg 29%
    14:00 +26°C° 0 mm 4 mps 759 mmHg 29%
    15:00 +26°C° 0 mm 4 mps 759 mmHg 29%
    16:00 +25°C° 0 mm 4 mps 758 mmHg 36%
    17:00 +22°C° 0 mm 4 mps 758 mmHg 42%
    18:00 +21°C° 0 mm 5 mps 758 mmHg 48%
    19:00 +20°C° 0 mm 5 mps 758 mmHg 51%
    20:00 +20°C° 0 mm 5 mps 758 mmHg 54%
    21:00 +19°C° 0 mm 5 mps 758 mmHg 57%
    22:00 +19°C° 0 mm 5 mps 758 mmHg 57%
    23:00 +19°C° 0 mm 5 mps 758 mmHg 57%

    26 January, Friday

    Time Temperature Precipitation Wind Pressure Humidity
    00:00 +19°C° 0 mm 5 mps 757 mmHg 58%
    01:00 +17°C° 0 mm 5 mps 757 mmHg 56%
    02:00 +17°C° 0 mm 6 mps 757 mmHg 54%
    03:00 +17°C° 0 mm 6 mps 757 mmHg 52%
    04:00 +17°C° 0 mm 6 mps 757 mmHg 45%
    05:00 +19°C° 0 mm 6 mps 757 mmHg 38%
    06:00 +18°C° 0 mm 7 mps 757 mmHg 31%
    07:00 +20°C° 0 mm 7 mps 757 mmHg 27%
    08:00 +21°C° 0 mm 7 mps 757 mmHg 23%
    09:00 +22°C° 0 mm 7 mps 758 mmHg 19%
    10:00 +24°C° 0 mm 6 mps 757 mmHg 17%
    11:00 +26°C° 0 mm 5 mps 757 mmHg 15%
    12:00 +28°C° 0 mm 5 mps 757 mmHg 13%
    13:00 +28°C° 0 mm 5 mps 757 mmHg 13%
    14:00 +28°C° 0 mm 5 mps 757 mmHg 13%
    15:00 +28°C° 0 mm 6 mps 757 mmHg 13%
    16:00 +26°C° 0 mm 6 mps 757 mmHg 17%
    17:00 +24°C° 0 mm 6 mps 757 mmHg 21%
    18:00 +22°C° 0 mm 6 mps 758 mmHg 25%
    19:00 +21°C° 0 mm 6 mps 758 mmHg 28%
    20:00 +20°C° 0 mm 6 mps 759 mmHg 31%
    21:00 +20°C° 0 mm 6 mps 760 mmHg 34%
    22:00 +19°C° 0 mm 6 mps 760 mmHg 34%
    23:00 +17°C° 0 mm 6 mps 760 mmHg 35%
    Show more